Location: Wien
(48.2082°N, 16.3738°E)
Time: 12:02:42
(UTC+02:00)

Tiros 1 despin weight - Pass Details

Date: 20 September 2024
Orbit: 573 x 615 km, 48.2° (Epoch: 06 October)

Event Time Altitude Azimuth Distance (km) Brightness Sun altitude
Rises 06:32:14 0° 282° (WNW) 2,883 - -1.9°
Exits shadow 06:32:35 - 282° (WNW) 2,742 ? -1.9°
Reaches altitude 10° 06:34:33 10° 280° (W) 1,980 ? -1.5°
Maximum altitude 06:39:03 63° 199° (SSW) 688 ? -0.8°
Drops below altitude 10° 06:43:33 10° 119° (ESE) 1,975 ? 0.0°
Sets 06:45:52 0° 116° (ESE) 2,876 ? 0.3°
